Back to catalog

PSLV DEB

AlivePO
NORAD 35346·DEBRIS·🇮🇳 India

Launched Oct 22, 2001 from Satish Dhawan Space Centre

Loading…

Next Passes (next 24 hours)

TLE

AgingSource: Space-Track

Epoch: Sep 4, 2026, 22:01 UTC

1 35346U 01049QE  26247.91736347  .00010479  00000-0  72752-3 0  9993
2 35346  98.8403 128.4147 0016749 146.0931 214.1366 15.05686349271845

Track PSLV DEB in real time with AllMySat

Download on the App Store